| time (UTC) | temp F | wind direction | speed MPH | gust MPH | rain 1hr in | rain 24hr in | rain mn in | humidity % | barometer mb |
| 20260902003454 | 72 | 268 | 11.0 | 16.0 | 0.00 | 0.00 | 0.00 | 81 | 1014.2 |
| 20260902002949 | 72 | 233 | 8.0 | 10.0 | 0.00 | 0.00 | 0.00 | 80 | 1014.6 |
| 20260902002445 | 72 | 265 | 12.0 | 14.0 | 0.00 | 0.00 | 0.00 | 80 | 1014.2 |
| 20260902001944 | 72 | 248 | 7.0 | 11.0 | 0.00 | 0.00 | 0.00 | 80 | 1014.6 |
| 20260902001439 | 73 | 235 | 8.0 | 11.0 | 0.00 | 0.00 | 0.00 | 80 | 1014.2 |
| 20260902000934 | 72 | 225 | 5.0 | 10.0 | 0.00 | 0.00 | 0.00 | 80 | 1014.6 |
| 20260902000429 | 73 | 205 | 7.0 | 11.0 | 0.00 | 0.00 | 0.00 | 80 | 1014.2 |
| 20260901235924 | 73 | 248 | 12.0 | 15.0 | 0.00 | 0.00 | 0.00 | 79 | 1014.6 |
| 20260901235419 | 73 | 259 | 8.0 | 9.0 | 0.00 | 0.00 | 0.00 | 79 | 1014.6 |
| 20260901234914 | 73 | 252 | 7.0 | 8.0 | 0.00 | 0.00 | 0.00 | 79 | 1014.6 |
| 20260901234408 | 74 | 231 | 11.0 | 13.0 | 0.00 | 0.00 | 0.00 | 78 | 1014.2 |
| 20260901233902 | 74 | 231 | 4.0 | 6.0 | 0.00 | 0.00 | 0.00 | 78 | 1014.6 |
| 20260901233358 | 73 | 227 | 6.0 | 9.0 | 0.00 | 0.00 | 0.00 | 80 | 1014.6 |
| 20260901232854 | 72 | 242 | 5.0 | 9.0 | 0.00 | 0.00 | 0.00 | 81 | 1014.9 |
| 20260901232349 | 73 | 187 | 8.0 | 11.0 | 0.00 | 0.00 | 0.00 | 79 | 1014.9 |
| 20260901231845 | 73 | 258 | 9.0 | 16.0 | 0.00 | 0.00 | 0.00 | 78 | 1014.9 |
| 20260901231340 | 73 | 233 | 6.0 | 9.0 | 0.00 | 0.00 | 0.00 | 79 | 1014.9 |
| 20260901230837 | 75 | 259 | 8.0 | 9.0 | 0.00 | 0.00 | 0.00 | 77 | 1014.9 |
| 20260901230336 | 74 | 257 | 11.0 | 13.0 | 0.00 | 0.00 | 0.00 | 76 | 1014.9 |
| 20260901225832 | 74 | 261 | 10.0 | 13.0 | 0.00 | 0.00 | 0.00 | 75 | 1014.6 |
| 20260901225331 | 75 | 245 | 12.0 | 17.0 | 0.00 | 0.00 | 0.00 | 74 | 1014.9 |
| 20260901224826 | 75 | 243 | 9.0 | 13.0 | 0.00 | 0.00 | 0.00 | 75 | 1014.6 |
| 20260901224323 | 74 | 237 | 13.0 | 16.0 | 0.00 | 0.00 | 0.00 | 78 | 1014.9 |
| 20260901223819 | 74 | 220 | 10.0 | 13.0 | 0.00 | 0.00 | 0.00 | 78 | 1014.9 |
| 20260901223314 | 74 | 282 | 9.0 | 11.0 | 0.00 | 0.00 | 0.00 | 78 | 1014.9 |
| 20260901222809 | 74 | 247 | 8.0 | 10.0 | 0.00 | 0.00 | 0.00 | 77 | 1014.9 |
| 20260901222306 | 75 | 257 | 11.0 | 15.0 | 0.00 | 0.00 | 0.00 | 76 | 1014.9 |
| 20260901221801 | 75 | 208 | 6.0 | 8.0 | 0.00 | 0.00 | 0.00 | 77 | 1014.9 |
| 20260901221256 | 75 | 245 | 7.0 | 9.0 | 0.00 | 0.00 | 0.00 | 76 | 1014.9 |
| 20260901220750 | 74 | 231 | 6.0 | 8.0 | 0.00 | 0.00 | 0.00 | 79 | 1014.9 |
| 20260901220244 | 74 | 248 | 14.0 | 17.0 | 0.00 | 0.00 | 0.00 | 78 | 1015.2 |
| 20260901215743 | 74 | 209 | 7.0 | 11.0 | 0.00 | 0.00 | 0.00 | 77 | 1014.9 |
| 20260901215242 | 75 | 246 | 8.0 | 9.0 | 0.00 | 0.00 | 0.00 | 75 | 1015.2 |
| 20260901214741 | 76 | 246 | 11.0 | 15.0 | 0.00 | 0.00 | 0.00 | 73 | 1015.2 |
| 20260901214240 | 75 | 235 | 11.0 | 14.0 | 0.00 | 0.00 | 0.00 | 76 | 1015.2 |
| 20260901213735 | 75 | 290 | 8.0 | 10.0 | 0.00 | 0.00 | 0.00 | 76 | 1015.2 |
| 20260901213235 | 75 | 231 | 5.0 | 8.0 | 0.00 | 0.00 | 0.00 | 75 | 1015.2 |
| 20260901212735 | 75 | 189 | 7.0 | 9.0 | 0.00 | 0.00 | 0.00 | 75 | 1015.6 |
| 20260901212231 | 74 | 258 | 10.0 | 13.0 | 0.00 | 0.00 | 0.00 | 78 | 1015.6 |
| 20260901211725 | 75 | 254 | 12.0 | 15.0 | 0.00 | 0.00 | 0.00 | 76 | 1015.6 |
| 20260901211222 | 75 | 270 | 10.0 | 14.0 | 0.00 | 0.00 | 0.00 | 75 | 1015.2 |
| 20260901210718 | 75 | 228 | 7.0 | 8.0 | 0.00 | 0.00 | 0.00 | 77 | 1015.2 |
| 20260901210213 | 75 | 211 | 7.0 | 9.0 | 0.00 | 0.00 | 0.00 | 77 | 1015.6 |
| 20260901205709 | 76 | 220 | 9.0 | 11.0 | 0.00 | 0.00 | 0.00 | 77 | 1015.2 |
| 20260901205204 | 76 | 206 | 7.0 | 9.0 | 0.00 | 0.00 | 0.00 | 74 | 1015.6 |
| 20260901204700 | 75 | 232 | 7.0 | 9.0 | 0.00 | 0.00 | 0.00 | 75 | 1015.6 |
| 20260901204154 | 75 | 244 | 10.0 | 13.0 | 0.00 | 0.00 | 0.00 | 76 | 1015.6 |
| 20260901203654 | 75 | 266 | 10.0 | 15.0 | 0.00 | 0.00 | 0.00 | 75 | 1015.6 |
| 20260901203149 | 75 | 220 | 9.0 | 13.0 | 0.00 | 0.00 | 0.00 | 75 | 1015.6 |
| 20260901202648 | 75 | 246 | 8.0 | 14.0 | 0.00 | 0.00 | 0.00 | 76 | 1015.6 |
| 20260901202144 | 75 | 241 | 7.0 | 9.0 | 0.00 | 0.00 | 0.00 | 75 | 1015.6 |
| 20260901201641 | 76 | 232 | 8.0 | 10.0 | 0.00 | 0.00 | 0.00 | 74 | 1015.6 |
| 20260901201140 | 77 | 163 | 6.0 | 8.0 | 0.00 | 0.00 | 0.00 | 72 | 1015.9 |
| 20260901200640 | 76 | 233 | 3.0 | 7.0 | 0.00 | 0.00 | 0.00 | 73 | 1015.9 |
| 20260901200135 | 77 | 242 | 10.0 | 14.0 | 0.00 | 0.00 | 0.00 | 72 | 1015.6 |
| 20260901195632 | 76 | 270 | 9.0 | 11.0 | 0.00 | 0.00 | 0.00 | 73 | 1015.9 |
| 20260901195132 | 75 | 258 | 9.0 | 11.0 | 0.00 | 0.00 | 0.00 | 74 | 1015.9 |
| 20260901194628 | 76 | 248 | 5.0 | 7.0 | 0.00 | 0.00 | 0.00 | 73 | 1015.9 |
| 20260901194123 | 76 | 258 | 7.0 | 9.0 | 0.00 | 0.00 | 0.00 | 72 | 1015.9 |
| 20260901193619 | 77 | 268 | 10.0 | 11.0 | 0.00 | 0.00 | 0.00 | 73 | 1015.9 |
| 20260901193113 | 75 | 227 | 7.0 | 10.0 | 0.00 | 0.00 | 0.00 | 74 | 1015.9 |
| 20260901192608 | 77 | 269 | 6.0 | 8.0 | 0.00 | 0.00 | 0.00 | 74 | 1015.9 |
| 20260901192103 | 76 | 178 | 3.0 | 5.0 | 0.00 | 0.00 | 0.00 | 74 | 1015.9 |
| 20260901191559 | 78 | 278 | 7.0 | 10.0 | 0.00 | 0.00 | 0.00 | 72 | 1015.9 |
| 20260901191055 | 77 | 233 | 5.0 | 8.0 | 0.00 | 0.00 | 0.00 | 72 | 1015.9 |
| 20260901190550 | 77 | 238 | 5.0 | 7.0 | 0.00 | 0.00 | 0.00 | 72 | 1016.2 |
| 20260901190050 | 76 | 232 | 5.0 | 6.0 | 0.00 | 0.00 | 0.00 | 73 | 1016.2 |
| 20260901185548 | 77 | 234 | 6.0 | 8.0 | 0.00 | 0.00 | 0.00 | 72 | 1016.2 |
| 20260901185047 | 76 | 285 | 8.0 | 10.0 | 0.00 | 0.00 | 0.00 | 73 | 1015.9 |
| 20260901184543 | 76 | 272 | 5.0 | 7.0 | 0.00 | 0.00 | 0.00 | 73 | 1015.9 |
| 20260901184038 | 75 | 177 | 0.0 | 0.0 | 0.00 | 0.00 | 0.00 | 75 | 1016.2 |
| 20260901183538 | 76 | 172 | 2.0 | 3.0 | 0.00 | 0.00 | 0.00 | 74 | 1016.6 |
| 20260901183033 | 75 | 230 | 4.0 | 7.0 | 0.00 | 0.00 | 0.00 | 75 | 1016.6 |
| 20260901182529 | 77 | 264 | 4.0 | 6.0 | 0.00 | 0.00 | 0.00 | 72 | 1016.2 |
| 20260901182024 | 76 | 252 | 3.0 | 6.0 | 0.00 | 0.00 | 0.00 | 73 | 1016.2 |
| 20260901181523 | 76 | 254 | 0.0 | 0.0 | 0.00 | 0.00 | 0.00 | 73 | 1016.2 |
| 20260901181023 | 75 | 267 | 0.0 | 0.0 | 0.00 | 0.00 | 0.00 | 76 | 1016.2 |
| 20260901180521 | 75 | 310 | 0.0 | 0.0 | 0.00 | 0.00 | 0.00 | 77 | 1016.2 |
| 20260901180016 | 74 | 197 | 0.0 | 1.0 | 0.00 | 0.00 | 0.00 | 77 | 1016.2 |
| 20260901175510 | 75 | 276 | 6.0 | 8.0 | 0.00 | 0.00 | 0.00 | 76 | 1016.6 |
| 20260901175005 | 75 | 289 | 5.0 | 6.0 | 0.00 | 0.00 | 0.00 | 76 | 1016.6 |
| 20260901174501 | 75 | 139 | 0.0 | 0.0 | 0.00 | 0.00 | 0.00 | 75 | 1016.6 |
| 20260901173956 | 75 | 279 | 0.0 | 0.0 | 0.00 | 0.00 | 0.00 | 74 | 1016.6 |
| 20260901173451 | 75 | 124 | 0.0 | 0.0 | 0.00 | 0.00 | 0.00 | 76 | 1016.6 |
| 20260901172947 | 75 | 74 | 0.0 | 0.0 | 0.00 | 0.00 | 0.00 | 75 | 1016.6 |
| 20260901172443 | 75 | 69 | 0.0 | 0.0 | 0.00 | 0.00 | 0.00 | 75 | 1015.9 |
| 20260901171941 | 74 | 53 | 0.0 | 0.0 | 0.00 | 0.00 | 0.00 | 76 | 1016.2 |
| 20260901171439 | 74 | 110 | 0.0 | 0.0 | 0.00 | 0.00 | 0.00 | 78 | 1016.2 |
| 20260901170938 | 73 | 28 | 0.0 | 0.0 | 0.00 | 0.00 | 0.00 | 78 | 1016.2 |
| 20260901170433 | 73 | 16 | 0.0 | 0.0 | 0.00 | 0.00 | 0.00 | 79 | 1015.9 |
| 20260901165932 | 73 | 150 | 0.0 | 0.0 | 0.00 | 0.00 | 0.00 | 78 | 1016.2 |
| 20260901165427 | 73 | 25 | 0.0 | 0.0 | 0.00 | 0.00 | 0.00 | 80 | 1016.2 |
| 20260901164918 | 73 | 61 | 0.0 | 0.0 | 0.00 | 0.00 | 0.00 | 81 | 1016.2 |
| 20260901164418 | 71 | 35 | 0.0 | 0.0 | 0.00 | 0.00 | 0.00 | 83 | 1016.2 |
| 20260901163913 | 71 | 92 | 0.0 | 0.0 | 0.00 | 0.00 | 0.00 | 82 | 1016.2 |
| 20260901163408 | 71 | 139 | 0.0 | 0.0 | 0.00 | 0.00 | 0.00 | 83 | 1016.2 |
| 20260901162902 | 71 | 77 | 0.0 | 0.0 | 0.00 | 0.00 | 0.00 | 84 | 1016.2 |
| 20260901162402 | 71 | 74 | 0.0 | 0.0 | 0.00 | 0.00 | 0.00 | 84 | 1016.2 |
| 20260901161901 | 71 | 62 | 0.0 | 0.0 | 0.00 | 0.00 | 0.00 | 85 | 1016.2 |
| 20260901161356 | 70 | 40 | 0.0 | 0.0 | 0.00 | 0.00 | 0.00 | 85 | 1016.2 |
| 20260901160856 | 70 | 70 | 0.0 | 0.0 | 0.00 | 0.00 | 0.00 | 86 | 1015.9 |
| 20260901160353 | 69 | 111 | 0.0 | 0.0 | 0.00 | 0.00 | 0.00 | 87 | 1016.2 |
| 20260901155851 | 69 | 123 | 0.0 | 0.0 | 0.00 | 0.00 | 0.00 | 87 | 1015.9 |
| 20260901155346 | 70 | 160 | 0.0 | 0.0 | 0.00 | 0.00 | 0.00 | 87 | 1016.2 |
| 20260901154843 | 69 | 94 | 0.0 | 0.0 | 0.00 | 0.00 | 0.00 | 88 | 1015.9 |
| 20260901154342 | 69 | 298 | 0.0 | 0.0 | 0.00 | 0.00 | 0.00 | 89 | 1016.2 |
| 20260901153837 | 69 | 286 | 0.0 | 0.0 | 0.00 | 0.00 | 0.00 | 89 | 1015.9 |
| 20260901153332 | 69 | 265 | 0.0 | 0.0 | 0.00 | 0.00 | 0.00 | 89 | 1015.9 |
| 20260901152830 | 69 | 233 | 0.0 | 0.0 | 0.00 | 0.00 | 0.00 | 90 | 1015.9 |
| 20260901152329 | 68 | 229 | 0.0 | 0.0 | 0.00 | 0.00 | 0.00 | 90 | 1016.2 |
| 20260901151820 | 68 | 208 | 0.0 | 0.0 | 0.00 | 0.00 | 0.00 | 90 | 1015.9 |
| 20260901151319 | 68 | 156 | 0.0 | 0.0 | 0.00 | 0.00 | 0.00 | 90 | 1015.9 |
| 20260901150814 | 68 | 240 | 0.0 | 0.0 | 0.00 | 0.00 | 0.00 | 90 | 1015.9 |
| 20260901150312 | 69 | 255 | 0.0 | 0.0 | 0.00 | 0.00 | 0.00 | 89 | 1015.9 |
| 20260901145809 | 69 | 191 | 0.0 | 0.0 | 0.00 | 0.00 | 0.00 | 89 | 1015.9 |
| 20260901145306 | 69 | 83 | 0.0 | 0.0 | 0.00 | 0.00 | 0.00 | 89 | 1015.6 |
| 20260901144758 | 68 | 89 | 0.0 | 0.0 | 0.00 | 0.00 | 0.00 | 90 | 1015.9 |
| 20260901144255 | 68 | 153 | 0.0 | 0.0 | 0.00 | 0.00 | 0.00 | 90 | 1015.6 |
| 20260901143750 | 68 | 133 | 0.0 | 0.0 | 0.00 | 0.00 | 0.00 | 90 | 1015.6 |
| 20260901143246 | 68 | 65 | 0.0 | 0.0 | 0.00 | 0.00 | 0.00 | 92 | 1015.2 |
| 20260901142742 | 67 | 74 | 0.0 | 0.0 | 0.00 | 0.00 | 0.00 | 92 | 1015.2 |
| 20260901142240 | 67 | 80 | 0.0 | 0.0 | 0.00 | 0.00 | 0.00 | 93 | 1015.2 |
| 20260901141731 | 66 | 79 | 0.0 | 0.0 | 0.00 | 0.00 | 0.00 | 94 | 1015.2 |
| 20260901141231 | 65 | 79 | 0.0 | 0.0 | 0.00 | 0.00 | 0.00 | 96 | 1015.2 |
| 20260901140729 | 65 | 74 | 0.0 | 0.0 | 0.00 | 0.00 | 0.00 | 96 | 1015.2 |
| 20260901140228 | 64 | 74 | 0.0 | 0.0 | 0.00 | 0.00 | 0.00 | 97 | 1015.2 |
| 20260901135718 | 64 | 84 | 0.0 | 0.0 | 0.00 | 0.00 | 0.00 | 97 | 1015.2 |
| 20260901135217 | 64 | 82 | 0.0 | 0.0 | 0.00 | 0.00 | 0.00 | 98 | 1014.9 |
| 20260901134713 | 63 | 72 | 0.0 | 0.0 | 0.00 | 0.00 | 0.00 | 98 | 1014.9 |
| 20260901134209 | 63 | 73 | 0.0 | 0.0 | 0.00 | 0.00 | 0.00 | 98 | 1015.2 |
| 20260901133708 | 63 | 77 | 0.0 | 0.0 | 0.00 | 0.00 | 0.00 | 98 | 1014.9 |
| 20260901133208 | 63 | 80 | 0.0 | 0.0 | 0.00 | 0.00 | 0.00 | 98 | 1014.9 |
| 20260901132706 | 62 | 84 | 0.0 | 0.0 | 0.00 | 0.00 | 0.00 | 98 | 1014.9 |
| 20260901132206 | 62 | 62 | 0.0 | 0.0 | 0.00 | 0.00 | 0.00 | 98 | 1014.9 |
| 20260901131701 | 62 | 61 | 0.0 | 0.0 | 0.00 | 0.00 | 0.00 | 98 | 1014.9 |
| 20260901131201 | 61 | 61 | 0.0 | 0.0 | 0.00 | 0.00 | 0.00 | 98 | 1014.9 |
| 20260901130655 | 62 | 61 | 0.0 | 0.0 | 0.00 | 0.00 | 0.00 | 98 | 1014.9 |
| 20260901130154 | 62 | 61 | 0.0 | 0.0 | 0.00 | 0.00 | 0.00 | 98 | 1014.6 |
| 20260901125653 | 62 | 61 | 0.0 | 0.0 | 0.00 | 0.00 | 0.00 | 98 | 1014.9 |
| 20260901125148 | 62 | 61 | 0.0 | 0.0 | 0.00 | 0.00 | 0.00 | 97 | 1014.6 |
| 20260901124643 | 62 | 61 | 0.0 | 0.0 | 0.00 | 0.00 | 0.00 | 97 | 1014.9 |
| 20260901124137 | 62 | 61 | 0.0 | 0.0 | 0.00 | 0.00 | 0.00 | 97 | 1014.9 |
| 20260901123631 | 62 | 61 | 0.0 | 0.0 | 0.00 | 0.00 | 0.00 | 97 | 1014.9 |
| 20260901123131 | 62 | 61 | 0.0 | 0.0 | 0.00 | 0.00 | 0.00 | 97 | 1014.9 |
| 20260901122629 | 62 | 61 | 0.0 | 0.0 | 0.00 | 0.00 | 0.00 | 97 | 1014.6 |
| 20260901122124 | 62 | 61 | 0.0 | 0.0 | 0.00 | 0.00 | 0.00 | 97 | 1014.9 |
| 20260901121620 | 62 | 61 | 0.0 | 0.0 | 0.00 | 0.00 | 0.00 | 97 | 1014.6 |
| 20260901121115 | 62 | 61 | 0.0 | 0.0 | 0.00 | 0.00 | 0.00 | 97 | 1014.6 |
| 20260901120614 | 62 | 61 | 0.0 | 0.0 | 0.00 | 0.00 | 0.00 | 97 | 1014.6 |
| 20260901120110 | 63 | 61 | 0.0 | 0.0 | 0.00 | 0.00 | 0.00 | 97 | 1014.6 |
| 20260901115604 | 63 | 61 | 0.0 | 0.0 | 0.00 | 0.00 | 0.00 | 97 | 1014.6 |
| 20260901115056 | 63 | 61 | 0.0 | 0.0 | 0.00 | 0.00 | 0.00 | 97 | 1014.6 |
| 20260901114552 | 62 | 61 | 0.0 | 0.0 | 0.00 | 0.00 | 0.00 | 97 | 1014.2 |
| 20260901114051 | 63 | 61 | 0.0 | 0.0 | 0.00 | 0.00 | 0.00 | 97 | 1014.6 |
| 20260901113549 | 63 | 64 | 0.0 | 0.0 | 0.00 | 0.00 | 0.00 | 97 | 1014.6 |
| 20260901113045 | 63 | 65 | 0.0 | 0.0 | 0.00 | 0.00 | 0.00 | 97 | 1014.6 |
| 20260901112539 | 62 | 68 | 0.0 | 0.0 | 0.00 | 0.00 | 0.00 | 97 | 1014.6 |
| 20260901112034 | 63 | 70 | 0.0 | 0.0 | 0.00 | 0.00 | 0.00 | 96 | 1014.6 |
| 20260901111533 | 63 | 70 | 0.0 | 0.0 | 0.00 | 0.00 | 0.00 | 96 | 1014.6 |
| 20260901111031 | 63 | 69 | 0.0 | 0.0 | 0.00 | 0.00 | 0.00 | 96 | 1014.6 |
| 20260901110527 | 63 | 70 | 0.0 | 0.0 | 0.00 | 0.00 | 0.00 | 96 | 1014.9 |
| 20260901110023 | 63 | 72 | 0.0 | 0.0 | 0.00 | 0.00 | 0.00 | 96 | 1014.6 |
| 20260901105520 | 63 | 73 | 0.0 | 0.0 | 0.00 | 0.00 | 0.00 | 96 | 1014.9 |
| 20260901105018 | 64 | 72 | 0.0 | 0.0 | 0.00 | 0.00 | 0.00 | 96 | 1014.9 |
| 20260901104515 | 63 | 72 | 0.0 | 0.0 | 0.00 | 0.00 | 0.00 | 96 | 1014.9 |
| 20260901104009 | 63 | 73 | 0.0 | 0.0 | 0.00 | 0.00 | 0.00 | 96 | 1014.9 |
| 20260901103504 | 64 | 73 | 0.0 | 0.0 | 0.00 | 0.00 | 0.00 | 96 | 1014.9 |
| 20260901103000 | 64 | 79 | 0.0 | 0.0 | 0.00 | 0.00 | 0.00 | 95 | 1014.9 |
| 20260901102454 | 64 | 82 | 0.0 | 0.0 | 0.00 | 0.00 | 0.00 | 95 | 1014.9 |
| 20260901101949 | 64 | 84 | 0.0 | 0.0 | 0.00 | 0.00 | 0.00 | 95 | 1014.6 |
| 20260901101443 | 64 | 91 | 0.0 | 0.0 | 0.00 | 0.00 | 0.00 | 95 | 1014.6 |
| 20260901100938 | 64 | 92 | 0.0 | 0.0 | 0.00 | 0.00 | 0.00 | 95 | 1014.9 |
| 20260901100432 | 64 | 102 | 0.0 | 0.0 | 0.00 | 0.00 | 0.00 | 95 | 1014.9 |
| 20260901095926 | 65 | 116 | 0.0 | 0.0 | 0.00 | 0.00 | 0.00 | 95 | 1014.9 |
| 20260901095425 | 64 | 133 | 0.0 | 0.0 | 0.00 | 0.00 | 0.00 | 95 | 1014.9 |
| 20260901094923 | 65 | 162 | 0.0 | 0.0 | 0.00 | 0.00 | 0.00 | 95 | 1014.6 |
| 20260901094424 | 65 | 177 | 0.0 | 0.0 | 0.00 | 0.00 | 0.00 | 95 | 1014.9 |
| 20260901093924 | 65 | 198 | 0.0 | 0.0 | 0.00 | 0.00 | 0.00 | 95 | 1014.9 |
| 20260901093424 | 65 | 225 | 0.0 | 0.0 | 0.00 | 0.00 | 0.00 | 95 | 1014.6 |
| 20260901092919 | 65 | 225 | 0.0 | 0.0 | 0.00 | 0.00 | 0.00 | 95 | 1014.9 |
| 20260901092415 | 65 | 231 | 0.0 | 0.0 | 0.00 | 0.00 | 0.00 | 95 | 1014.6 |
| 20260901091910 | 65 | 226 | 0.0 | 0.0 | 0.00 | 0.00 | 0.00 | 95 | 1014.9 |
| 20260901091410 | 65 | 236 | 0.0 | 0.0 | 0.00 | 0.00 | 0.00 | 95 | 1014.9 |
| 20260901090905 | 65 | 242 | 0.0 | 0.0 | 0.00 | 0.00 | 0.00 | 94 | 1014.9 |
| 20260901090400 | 65 | 245 | 0.0 | 0.0 | 0.00 | 0.00 | 0.00 | 94 | 1014.6 |
| 20260901085855 | 65 | 257 | 0.0 | 0.0 | 0.00 | 0.00 | 0.00 | 94 | 1014.9 |
| 20260901085351 | 65 | 245 | 0.0 | 0.0 | 0.00 | 0.00 | 0.00 | 94 | 1014.6 |
| 20260901084848 | 65 | 245 | 0.0 | 0.0 | 0.00 | 0.00 | 0.00 | 94 | 1014.9 |
| 20260901084343 | 65 | 269 | 0.0 | 0.0 | 0.00 | 0.00 | 0.00 | 95 | 1014.9 |
| 20260901083839 | 65 | 236 | 0.0 | 0.0 | 0.00 | 0.00 | 0.00 | 94 | 1014.9 |
| 20260901083338 | 65 | 178 | 0.0 | 0.0 | 0.00 | 0.00 | 0.00 | 94 | 1015.2 |
| 20260901082836 | 66 | 167 | 0.0 | 0.0 | 0.00 | 0.00 | 0.00 | 94 | 1014.9 |
| 20260901082332 | 65 | 129 | 0.0 | 0.0 | 0.00 | 0.00 | 0.00 | 94 | 1014.9 |
| 20260901081827 | 65 | 135 | 0.0 | 0.0 | 0.00 | 0.00 | 0.00 | 94 | 1014.9 |
| 20260901081322 | 65 | 145 | 0.0 | 0.0 | 0.00 | 0.00 | 0.00 | 94 | 1015.2 |
| 20260901080816 | 66 | 160 | 0.0 | 0.0 | 0.00 | 0.00 | 0.00 | 94 | 1014.9 |
| 20260901080311 | 66 | 190 | 0.0 | 0.0 | 0.00 | 0.00 | 0.00 | 94 | 1014.9 |
| 20260901075810 | 66 | 214 | 0.0 | 0.0 | 0.00 | 0.00 | 0.00 | 94 | 1014.9 |
| 20260901075307 | 66 | 236 | 0.0 | 0.0 | 0.00 | 0.00 | 0.00 | 94 | 1014.9 |
| 20260901074800 | 66 | 245 | 0.0 | 0.0 | 0.00 | 0.00 | 0.00 | 94 | 1014.9 |
| 20260901074255 | 66 | 265 | 0.0 | 0.0 | 0.00 | 0.00 | 0.00 | 94 | 1014.9 |
| 20260901073751 | 66 | 243 | 0.0 | 0.0 | 0.00 | 0.00 | 0.00 | 94 | 1014.9 |
| 20260901073246 | 67 | 242 | 0.0 | 0.0 | 0.00 | 0.00 | 0.00 | 94 | 1014.9 |
| 20260901072741 | 67 | 245 | 0.0 | 0.0 | 0.00 | 0.00 | 0.00 | 94 | 1014.9 |
| 20260901072237 | 67 | 232 | 0.0 | 0.0 | 0.00 | 0.00 | 0.00 | 94 | 1014.9 |
| 20260901071736 | 67 | 244 | 0.0 | 0.0 | 0.00 | 0.00 | 0.00 | 94 | 1014.9 |
| 20260901071237 | 67 | 242 | 0.0 | 0.0 | 0.00 | 0.00 | 0.00 | 94 | 1014.9 |
| 20260901070735 | 67 | 245 | 0.0 | 0.0 | 0.00 | 0.00 | 0.00 | 94 | 1014.9 |
| 20260901070231 | 67 | 216 | 0.0 | 0.0 | 0.00 | 0.00 | 0.00 | 94 | 1014.9 |
| 20260901065730 | 67 | 156 | 0.0 | 0.0 | 0.00 | 0.00 | 0.00 | 94 | 1014.9 |
| 20260901065226 | 67 | 232 | 0.0 | 0.0 | 0.00 | 0.00 | 0.00 | 94 | 1014.9 |
| 20260901064722 | 67 | 162 | 0.0 | 0.0 | 0.00 | 0.00 | 0.00 | 94 | 1014.9 |
| 20260901064218 | 67 | 174 | 0.0 | 0.0 | 0.00 | 0.00 | 0.00 | 94 | 1014.6 |
| 20260901063715 | 67 | 211 | 0.0 | 0.0 | 0.00 | 0.00 | 0.00 | 93 | 1014.9 |
| 20260901063210 | 67 | 221 | 0.0 | 0.0 | 0.00 | 0.00 | 0.00 | 93 | 1014.6 |
| 20260901062706 | 67 | 243 | 0.0 | 0.0 | 0.00 | 0.00 | 0.00 | 93 | 1014.9 |
| 20260901062202 | 67 | 273 | 0.0 | 0.0 | 0.00 | 0.00 | 0.00 | 93 | 1014.6 |
| 20260901061658 | 67 | 226 | 0.0 | 0.0 | 0.00 | 0.00 | 0.00 | 93 | 1014.6 |
| 20260901061157 | 67 | 213 | 0.0 | 0.0 | 0.00 | 0.00 | 0.00 | 93 | 1014.2 |
| 20260901060652 | 68 | 185 | 0.0 | 0.0 | 0.00 | 0.00 | 0.00 | 93 | 1014.6 |
| 20260901060148 | 68 | 168 | 0.0 | 0.0 | 0.00 | 0.00 | 0.00 | 93 | 1014.6 |
| 20260901055649 | 68 | 253 | 0.0 | 0.0 | 0.00 | 0.00 | 0.00 | 93 | 1014.2 |
| 20260901055145 | 68 | 231 | 0.0 | 0.0 | 0.00 | 0.00 | 0.00 | 93 | 1014.2 |
| 20260901054642 | 68 | 166 | 0.0 | 0.0 | 0.00 | 0.00 | 0.00 | 93 | 1014.6 |
| 20260901054138 | 68 | 267 | 0.0 | 0.0 | 0.00 | 0.00 | 0.00 | 93 | 1014.2 |
| 20260901053634 | 68 | 253 | 0.0 | 0.0 | 0.00 | 0.00 | 0.00 | 93 | 1014.6 |
| 20260901053129 | 68 | 243 | 0.0 | 0.0 | 0.00 | 0.00 | 0.00 | 93 | 1014.6 |
| 20260901052624 | 68 | 229 | 0.0 | 0.0 | 0.00 | 0.00 | 0.00 | 93 | 1014.2 |
| 20260901052119 | 68 | 204 | 0.0 | 0.0 | 0.00 | 0.00 | 0.00 | 93 | 1014.2 |
| 20260901051613 | 68 | 223 | 0.0 | 0.0 | 0.00 | 0.00 | 0.00 | 93 | 1014.2 |
| 20260901051111 | 68 | 285 | 0.0 | 0.0 | 0.00 | 0.00 | 0.00 | 93 | 1014.2 |
| 20260901050607 | 68 | 217 | 0.0 | 0.0 | 0.00 | 0.00 | 0.00 | 93 | 1014.2 |
| 20260901045557 | 68 | 159 | 0.0 | 0.0 | 0.00 | 0.00 | 0.00 | 93 | 1014.2 |
| 20260901045052 | 68 | 214 | 0.0 | 0.0 | 0.00 | 0.00 | 0.00 | 93 | 1014.2 |
| 20260901044548 | 68 | 215 | 0.0 | 0.0 | 0.00 | 0.00 | 0.00 | 93 | 1014.2 |
| 20260901044044 | 68 | 202 | 0.0 | 0.0 | 0.00 | 0.00 | 0.00 | 93 | 1013.9 |
| 20260901043539 | 68 | 225 | 0.0 | 0.0 | 0.00 | 0.00 | 0.00 | 93 | 1014.2 |
| 20260901043035 | 68 | 171 | 0.0 | 0.0 | 0.00 | 0.00 | 0.00 | 93 | 1013.9 |
| 20260901042534 | 69 | 230 | 0.0 | 0.0 | 0.00 | 0.00 | 0.00 | 93 | 1014.6 |
| 20260901042029 | 69 | 240 | 0.0 | 0.0 | 0.00 | 0.00 | 0.00 | 92 | 1014.2 |
| 20260901041525 | 69 | 218 | 0.0 | 0.0 | 0.00 | 0.00 | 0.00 | 92 | 1014.2 |
| 20260901041020 | 69 | 170 | 0.0 | 0.0 | 0.00 | 0.00 | 0.00 | 92 | 1013.9 |
| 20260901040519 | 68 | 209 | 0.0 | 0.0 | 0.00 | 0.00 | 0.00 | 91 | 1013.9 |
| 20260901040014 | 68 | 223 | 0.0 | 0.0 | 0.00 | 0.00 | 0.00 | 91 | 1013.9 |
| 20260901035512 | 68 | 184 | 0.0 | 0.0 | 0.00 | 0.00 | 0.00 | 91 | 1013.5 |
| 20260901035010 | 68 | 176 | 0.0 | 0.0 | 0.00 | 0.00 | 0.00 | 91 | 1013.5 |
| 20260901034510 | 68 | 236 | 0.0 | 0.0 | 0.00 | 0.00 | 0.00 | 92 | 1013.5 |
| 20260901034005 | 68 | 262 | 0.0 | 0.0 | 0.00 | 0.00 | 0.00 | 92 | 1013.2 |
| 20260901033458 | 69 | 245 | 0.0 | 0.0 | 0.00 | 0.00 | 0.00 | 92 | 1013.5 |
| 20260901032957 | 69 | 176 | 0.0 | 0.0 | 0.00 | 0.00 | 0.00 | 92 | 1013.2 |
| 20260901032452 | 69 | 171 | 0.0 | 0.0 | 0.00 | 0.00 | 0.00 | 92 | 1013.2 |
| 20260901031946 | 69 | 239 | 0.0 | 0.0 | 0.00 | 0.00 | 0.00 | 91 | 1013.2 |
| 20260901031442 | 69 | 238 | 0.0 | 0.0 | 0.00 | 0.00 | 0.00 | 91 | 1013.2 |
| 20260901030942 | 69 | 185 | 0.0 | 0.0 | 0.00 | 0.00 | 0.00 | 91 | 1013.2 |
| 20260901030438 | 69 | 235 | 0.0 | 0.0 | 0.00 | 0.00 | 0.00 | 91 | 1012.9 |
| 20260901025936 | 69 | 255 | 0.0 | 0.0 | 0.00 | 0.00 | 0.00 | 91 | 1012.9 |
| 20260901025432 | 69 | 240 | 0.0 | 0.0 | 0.00 | 0.00 | 0.00 | 91 | 1013.2 |
| 20260901024931 | 69 | 250 | 0.0 | 0.0 | 0.00 | 0.00 | 0.00 | 91 | 1012.9 |
| 20260901024425 | 69 | 242 | 0.0 | 0.0 | 0.00 | 0.00 | 0.00 | 91 | 1012.9 |
| 20260901023924 | 69 | 194 | 4.0 | 6.0 | 0.00 | 0.00 | 0.00 | 91 | 1012.5 |
| 20260901023419 | 69 | 221 | 4.0 | 6.0 | 0.00 | 0.00 | 0.00 | 90 | 1012.9 |
| 20260901022914 | 69 | 267 | 7.0 | 9.0 | 0.00 | 0.00 | 0.00 | 90 | 1012.9 |
| 20260901022410 | 69 | 236 | 5.0 | 6.0 | 0.00 | 0.00 | 0.00 | 90 | 1012.9 |
| 20260901021905 | 69 | 241 | 8.0 | 9.0 | 0.00 | 0.00 | 0.00 | 90 | 1012.9 |
| 20260901021401 | 69 | 231 | 2.0 | 3.0 | 0.00 | 0.00 | 0.00 | 90 | 1012.9 |
| 20260901020856 | 69 | 254 | 2.0 | 3.0 | 0.00 | 0.00 | 0.00 | 90 | 1012.9 |
| 20260901020351 | 70 | 283 | 1.0 | 3.0 | 0.00 | 0.00 | 0.00 | 89 | 1012.9 |
| 20260901015850 | 70 | 250 | 7.0 | 9.0 | 0.00 | 0.00 | 0.00 | 88 | 1012.9 |
| 20260901015347 | 70 | 242 | 9.0 | 11.0 | 0.00 | 0.00 | 0.00 | 88 | 1012.9 |
| 20260901014846 | 70 | 245 | 3.0 | 6.0 | 0.00 | 0.00 | 0.00 | 88 | 1012.9 |
| 20260901014342 | 70 | 229 | 7.0 | 9.0 | 0.00 | 0.00 | 0.00 | 88 | 1012.9 |
| 20260901013837 | 71 | 235 | 6.0 | 9.0 | 0.00 | 0.00 | 0.00 | 87 | 1012.9 |
| 20260901013333 | 71 | 192 | 7.0 | 10.0 | 0.00 | 0.00 | 0.00 | 86 | 1012.9 |
| 20260901012828 | 71 | 155 | 5.0 | 7.0 | 0.00 | 0.00 | 0.00 | 86 | 1012.9 |
| 20260901012323 | 71 | 214 | 0.0 | 0.0 | 0.00 | 0.00 | 0.00 | 86 | 1012.9 |
| 20260901011819 | 71 | 229 | 5.0 | 8.0 | 0.00 | 0.00 | 0.00 | 86 | 1012.9 |
| 20260901011314 | 71 | 243 | 7.0 | 11.0 | 0.00 | 0.00 | 0.00 | 86 | 1012.9 |
| 20260901010807 | 72 | 264 | 8.0 | 10.0 | 0.00 | 0.00 | 0.00 | 86 | 1012.9 |
| 20260901010303 | 73 | 240 | 8.0 | 13.0 | 0.00 | 0.00 | 0.00 | 84 | 1012.9 |
| 20260901005801 | 73 | 224 | 7.0 | 10.0 | 0.00 | 0.00 | 0.00 | 84 | 1013.2 |
| 20260901005256 | 73 | 193 | 7.0 | 9.0 | 0.00 | 0.00 | 0.00 | 84 | 1013.2 |
| 20260901004750 | 73 | 238 | 8.0 | 10.0 | 0.00 | 0.00 | 0.00 | 84 | 1012.9 |
| 20260901004245 | 73 | 238 | 4.0 | 6.0 | 0.00 | 0.00 | 0.00 | 84 | 1013.2 |